Regional Weather Roundup
Issued by NWS Jackson, KY

Home | Current Version | Previous Version | Graphics & Text | Print | Product List | Glossary On
Versions: 1 2 3 4 5 6 7 8 9 10 11 12 13 14 15 16 17 18 19 20 21 22 23 24 25 26 27 28
371
ASUS43 KJKL 211310
RWRJKL

EAST KENTUCKY HOURLY WEATHER ROUNDUP
NATIONAL WEATHER SERVICE JACKSON KY
900 AM EDT THU MAY 21 2015

NOTE: "FAIR" INDICATES FEW OR NO CLOUDS BELOW 12,000 FEET WITH
NO SIGNIFICANT WEATHER AND/OR OBSTRUCTIONS TO VISIBILITY.

* THESE REPORTS ARE NOT UNDER NWS QUALITY CONTROL AND MAY NOT
  REPORT WEATHER SUCH AS PRECIPITATION AND FOG.

KYZ079-080-083-085-087-088-110-112-115-119-120-211400
...EASTERN KENTUCKY...

CITY           SKY/WX    TMP DP  RH WIND       PRES   REMARKS
JACKSON        FOG       52  51  97 VRB3      29.99R VSB 3/4
LONDON         CLOUDY    54  49  83 NW9       30.02R HAZE
SOMERSET*      CLOUDY    52  52 100 NW6       30.05R FOG
MONTICELLO*    CLOUDY    54  53  96 NW9       30.07R FOG
MIDDLESBORO*   CLOUDY    59  55  88 NW3       30.00R
HARLAN APT*    CLOUDY    55  55 100 W3        29.98R
HAZARD APT*    CLOUDY    55  55 100 NW5       29.99R FOG
BLACK MTN*       N/A     50  50 100 N7          N/A
PIKEVILLE APT* CLOUDY    52  52 100 NW6       29.97R
BIG SANDY*     CLOUDY    52  51  98 NW5       29.98R FOG
MOREHEAD APT*  CLOUDY    54  46  76 NW7       30.03R
$$

KYZ035-036-041-042-044-050-067-078-099-211400
...CENTRAL KENTUCKY...

CITY           SKY/WX    TMP DP  RH WIND       PRES   REMARKS
MT STERLING*   CLOUDY    52  50  93 N6        30.03R FOG
FLEMING/MASON* DRIZZLE   48  48 100 N5        30.03R
DANVILLE*      DRIZZLE   50  50 100 NW9       30.05S
RICHMOND*      CLOUDY    50  48  93 NW8       30.03R
LEXINGTON      CLOUDY    51  48  89 NW7       30.04R FOG
FRANKFORT      CLOUDY    53  45  74 NW7       30.04R
$$

KYZ091>093-OHZ055-061-077-WVZ005-015-034-035-042-211400
...SOUTHERN OHIO/WEST VIRGINIA...

CITY           SKY/WX    TMP DP  RH WIND       PRES   REMARKS
COVINGTON      CLOUDY    51  44  77 N8        30.04S
COLUMBUS       CLOUDY    49  42  77 NE5       30.02R
DAYTON         CLOUDY    50  41  71 N9        30.05S
WILMINGTON     CLOUDY    50  43  77 N8        30.02S
HUNTINGTON     CLOUDY    49  49 100 N7        29.98R FOG
CHARLESTON     LGT RAIN  53  52  96 N3        29.95R VSB 1
PINEVILLE*     DRIZZLE   57  57 100 MISG      29.99R
BECKLEY        LGT RAIN  55  52  89 SE5       29.93S FOG
BLUEFIELD      LGT RAIN  57  53  86 CALM      29.96R FOG
$$

VAZ002-007-008-TNZ017-027-036-066-071-211400
...SOUTHWEST VIRGINIA/EAST TENNESSEE...

CITY           SKY/WX    TMP DP  RH WIND       PRES   REMARKS
WISE*          CLOUDY    55  55 100 NW6       29.98R FOG
JONESVILLE*    CLOUDY    61  57  88 W6        29.99R
ABINGDON*      LGT RAIN  60  59  99 CALM      29.95R
BRISTOL        CLOUDY    62  60  93 W3        29.94R FOG
KNOXVILLE      PTSUNNY   63  58  83 W13       29.98R
OAK RIDGE      CLOUDY    64  58  80 VRB5      30.00R
CROSSVILLE     CLOUDY    55  52  89 W10       30.04R FOG
NASHVILLE      CLOUDY    54  50  86 NW9       30.10R
$$

...KEY TO REMARKS...
VSB - VISIBILITY IN MILES
WCI - WIND CHILL INDEX
HX  - HEAT INDEX

$$



USA.gov is the U.S. government's official web portal to all federal, state and local government web resources and services.